Change the Weather History Date:

Saturday, March 9, 2013

  Actual Average Record
Temperature  
Mean Temperature 41 °F -  
Max Temperature 53 °F 54 °F 62 °F (2005)
Min Temperature 29 °F 36 °F 24 °F (2009)
Degree Days  
Heating Degree Days 24    
Moisture  
Dew Point 35 °F    
Average Humidity 82    
Maximum Humidity 100    
Minimum Humidity 45    
Precipitation  
Precipitation 0.00 in 0.18 in - ()
Sea Level Pressure  
Sea Level Pressure 30.41 in    
Wind  
Wind Speed 2 mph ()    
Max Wind Speed 7 mph    
Max Gust Speed -    
Visibility 10.8 miles    
Events Fog    
Averages and records for this station are not official NWS values.
T = Trace of Precipitation, MM = Missing Value Source: Averaged Metar Reports

Daily Weather History Graph

Daily Weather History Graph

Search for Another Location

Airport or City:

Trip Planner

Search our weather history database for the weather conditions in past years. The results will help you decide how hot, cold, wet, or windy it might be!

Date:

Astronomy

Mar. 09, 2013 Rise Set
Actual Time 6:34 AM PST 6:06 PM PST
Civil Twilight 6:03 AM PST 6:37 PM PST
Nautical Twilight 5:26 AM PST 7:14 PM PST
Astronomical Twilight 4:49 AM PST 7:51 PM PST
Moon 5:10 AM PST (3/9) 4:07 PM PST (3/9)
Length of Visible Light 12h 34m
Length of Day
11h 31m
Waning Crescent, 5% of the Moon is Illuminated
Mar 9
Waning Crescent
Mar 11
New
Mar 19
First Quarter
Mar 27
Full
Apr 2
Last Quarter

Hourly Weather History & Observations

Time (PST) Temp. Windchill Dew Point Humidity Pressure Visibility Wind Dir Wind Speed Gust Speed Precip Events Conditions
12:00 AM 33.8 °F - 33.8 °F 100% 30.26 in 15.0 mi NNW 2.3 mph - N/A   Clear
1:00 AM 32.0 °F - 32.0 °F 100% 30.27 in 10.0 mi Calm Calm - N/A   Clear
2:00 AM 32.0 °F - 32.0 °F 100% 30.29 in 10.0 mi NW 2.3 mph - N/A Fog Patches of Fog
3:00 AM 32.0 °F - 30.2 °F 93% 30.30 in 10.0 mi Calm Calm - N/A Fog Patches of Fog
4:00 AM 31 °F - 30 °F 95% 30.32 in 10 mi North 3.5 mph - - Fog Light Fog
4:00 AM 30.2 °F 26.7 °F 30.2 °F 100% 30.32 in 10.0 mi North 3.5 mph - N/A Fog Patches of Fog
5:00 AM 30.2 °F - 30.2 °F 100% 30.33 in 15.0 mi Calm Calm - N/A Fog Patches of Fog
6:00 AM 30.2 °F - 30.2 °F 100% 30.35 in 30.0 mi NW 2.3 mph - N/A Fog Patches of Fog
7:00 AM 32.0 °F 28.7 °F 32.0 °F 100% 30.38 in 30.0 mi NNW 3.5 mph - N/A Fog Patches of Fog
8:00 AM 32.0 °F - 32.0 °F 100% 30.41 in 30.0 mi Calm Calm - N/A Fog Patches of Fog
9:00 AM 41.0 °F - 37.4 °F 87% 30.42 in 30.0 mi Calm Calm - N/A   Partly Cloudy
10:00 AM 44 °F - 37 °F 68% 30.42 in 28 mi East 3.5 mph - -   Scattered Clouds
10:00 AM 44.6 °F - 37.4 °F 76% 30.42 in 30.0 mi ESE 2.3 mph - N/A   Partly Cloudy
11:00 AM 48.2 °F - 39.2 °F 71% 30.44 in 30.0 mi SW 5.8 mph - N/A   Partly Cloudy
12:00 PM 50.0 °F - 37.4 °F 62% 30.45 in 30.0 mi South 6.9 mph - N/A   Scattered Clouds
1:00 PM 50.0 °F - 39.2 °F 66% 30.44 in 30.0 mi SSW 6.9 mph - N/A   Mostly Cloudy
2:00 PM 51.8 °F - 37.4 °F 58% 30.45 in 30.0 mi Calm Calm - N/A   Partly Cloudy
3:00 PM 51.8 °F - 37.4 °F 58% 30.44 in 30.0 mi WSW 4.6 mph - N/A   Partly Cloudy
4:00 PM 52 °F - 37 °F 45% 30.44 in 28 mi WSW 5.8 mph - -   Scattered Clouds
4:00 PM 51.8 °F - 37.4 °F 58% 30.44 in 30.0 mi WSW 5.8 mph - N/A   Partly Cloudy
5:00 PM 51.8 °F - 39.2 °F 62% 30.45 in 30.0 mi SW 6.9 mph - N/A   Mostly Cloudy
6:00 PM 48.2 °F - 37.4 °F 66% 30.46 in 30.0 mi SSW 5.8 mph - N/A   Mostly Cloudy
7:00 PM 42.8 °F - 37.4 °F 81% 30.48 in 10.0 mi Calm Calm - N/A   Scattered Clouds
8:00 PM 41.0 °F - 37.4 °F 87% 30.49 in 10.0 mi Calm Calm - N/A   Scattered Clouds
9:00 PM 39.2 °F - 35.6 °F 87% 30.50 in 10.0 mi Calm Calm - N/A   Partly Cloudy
10:00 PM 39 °F - 37 °F 89% 30.50 in 10 mi East 2.3 mph - -   Scattered Clouds
11:00 PM 37.4 °F - 35.6 °F 93% 30.50 in 10.0 mi NE 2.3 mph - N/A   Partly Cloudy